sat.trackr.live / text

‹ back to catalog

STARLINK-1417

NORAD 45693 · 2020-035AN

PAYLOAD ACTIVE UNKNOWN

§ Identity

Operator
Country
US
Launch date
2020-06-04
Launch site
AFETR
Launch vehicle
Mass (kg)
RCS (m²)

Purposes: comms

External: N2YO · Heavens-Above · Gunter

§ Orbital elements

Epoch: 2026-05-25T02:05:30.635232Z

Period
94.99 min
Inclination
53.0502°
Eccentricity
0.0006124
Mean motion
15.16019238 rev/d
Perigee alt
513.7 km
Apogee alt
522.1 km
Semi-major
6,896.0 km
B*
1.1311e-3
RAAN
67.0533°
Arg perigee
92.0413°
Mean anomaly
268.1281°
Rev number
33,047

§ Raw data

STARLINK-14171 45693U 20035AN  26145.08716013  .00021762  00000+0  11311-2 0  99972 45693  53.0502  67.0533 0006124  92.0413 268.1281 15.16019238330471

JSON: /api/v1/satellites/45693 · /tle

For live sub-satellite position, see the globe view (requires WebGL).

§ Visibility from observer

Set your observer location to see the next 7 days of passes ≥ 10°. The values pass through the URL so the page stays shareable.

No JS? Fill the form by hand. The geolocation button needs JavaScript.